Flag for U.S.A. Weather past 2 weeks in Salinas, California, U.S.A.

Now
58 °F

Fog.


Feels Like: 58 °F
Forecast: 57 / 80 °F
Wind: No wind

Location: Salinas Municipal Airport

Current Time: Aug 1, 2014 at 4:58:52 AM

Latest Report: Aug 1, 2014 at 3:53 AM


Visibility: 5 mi

Pressure: 29.93 "Hg

Humidity: 93%

Dew point: 56 °F

Location of SalinasLocation

Historic Weather in Salinas — Graph

°F

Salinas temperature yesterday

Maximum temperature yesterday: 73 °F (at 12:53 PM)
Minimum temperature yesterday: 59 °F (at 3:53 AM)
Average temperature yesterday: 64 °F

Past Weeks' High & Low Weather Summary

 TemperatureHumidityPressure
High78 °F (Jul 25, 11:53 AM)97% (Jul 25, 6:53 AM)30.17 "Hg (Jul 25, 6:53 AM)
Low58 °F (Jul 23, 5:53 AM)48% (Jul 23, 11:53 AM)29.87 "Hg (Jul 25, 2:53 AM)
Average66 °F75%30.02 "Hg
* Reported Jul 17 3:53 AM — Aug 1 3:53 AM, Salinas, Weather by CustomWeather, © 2014

Note: Actual official high and low records may vary slightly from our data, if they occured in-between our weather recording intervals... More about our weather records

Advertising

Salinas weather history for previous 24 hours

 ConditionsComfort  
Time TempWeatherWind HumidityBarometerVisibility
3:53 AM
Aug 1
58 °FFog.No wind93%29.93 "Hg5 mi
2:53 AM59 °FFog.5 mph93%29.94 "Hg5 mi
1:53 AM59 °FFog.No wind93%29.94 "Hg6 mi
12:53 AM59 °FFog.3 mph93%29.96 "Hg4 mi
11:53 PM
Jul 31
59 °FFog.5 mph93%29.95 "Hg6 mi
10:53 PM61 °FLow clouds.7 mph90%29.95 "Hg7 mi
9:53 PM61 °FLow clouds.8 mph87%29.96 "Hg8 mi
8:53 PM62 °FLow clouds.8 mph83%29.95 "Hg10 mi
7:53 PM63 °FPartly sunny.12 mph81%29.94 "Hg10 mi
6:53 PM65 °FPassing clouds.15 mph78%29.93 "Hg10 mi
5:53 PM68 °FSunny.13 mph70%29.94 "Hg10 mi
4:53 PM70 °FSunny.16 mph66%29.94 "Hg10 mi
3:53 PM72 °FSunny.13 mph61%29.95 "Hg10 mi
2:53 PM73 °FSunny.16 mph59%29.96 "Hg10 mi
1:53 PM73 °FSunny.14 mph59%29.97 "Hg10 mi
12:53 PM73 °FSunny.13 mph59%29.98 "Hg10 mi
11:53 AM71 °FSunny.9 mph63%30.00 "Hg10 mi
10:53 AM67 °FSunny.6 mph71%30.02 "Hg10 mi
9:53 AM62 °FLow clouds.5 mph83%30.02 "Hg9 mi
8:53 AM60 °FLow clouds.3 mph90%30.02 "Hg7 mi
7:53 AM59 °FFog.No wind93%30.01 "Hg6 mi
6:53 AM59 °FLow clouds.No wind93%30.01 "Hg7 mi
5:53 AM59 °FLow clouds.No wind93%30.01 "Hg8 mi
4:53 AM59 °FLow clouds.No wind93%30.00 "Hg8 mi
Weather by CustomWeather, © 2014

See weather overviewHow to use our weather pages